Location: Auckland
(36.8670°S, 174.7670°E)
Time: 22:20:28
(UTC+12:00)

Courier 1B Rocket - Pass Details

Date: 28 July 2019
Orbit: 920 x 1202 km, 28.2° (Epoch: 25 August)

Event Time Altitude Azimuth Distance (km) Brightness Sun altitude
Rises 02:38:47 0° 297° (WNW) 4,062 - -56.3°
Reaches altitude 10° 02:41:47 10° 304° (WNW) 3,120 - -55.8°
Maximum altitude 02:48:58 40° 10° (N) 1,693 - -54.4°
Exits shadow 02:55:51 11° 75° (ENE) 3,029 7.9 -53.1°
Drops below altitude 10° 02:56:08 10° 76° (ENE) 3,117 8.0 -53.1°
Sets 02:59:07 0° 83° (E) 4,057 8.7 -52.5°
